Location: Kumla
(59.1265°N, 15.1401°E)
Time: 18:00:16
(UTC+01:00)

A-11 Canister half - Pass Details

Date: 07 December 2023
Orbit: 1512 x 1687 km, 47.2° (Epoch: 25 February)

Event Time Altitude Azimuth Distance (km) Brightness Sun altitude
Rises 00:08:40 0° 218° (SW) 4,733 - -53.3°
Reaches altitude 10° 00:12:08 10° 209° (SSW) 3,776 - -53.2°
Maximum altitude 00:20:06 31° 152° (SSE) 2,554 - -53.0°
Drops below altitude 10° 00:28:19 10° 96° (E) 3,899 - -52.8°
Exits shadow 00:29:36 - 92° (E) 4,242 11.4 -52.8°
Sets 00:31:58 0° 87° (E) 4,909 11.8 -52.7°
